Find Starlink 32418

NORAD ID: 62429 Int'l Des: 2024-249 Owner: SPXS Country: US Constellation: starlink operational
LEOCIRCULAR

当前视图

正在加载3D地球...

About Starlink 32418

Starlink 32418 (NORAD 62429) is a starlink constellation satellite (v2 mini) launched Dec 23, 2024 by SPXS of US. It operates in LEO, CIRCULAR orbit with a mass of 730.00 kg.

即将过境

Passes for default location (London). Set your location on the main map for personalized predictions.

高度历史

Loading altitude history...

两行轨道根数

1 62429U 24249W 26263.40655484 .00010305 00000-0 38327-3 0 9994
2 62429 43.0028 294.3612 0001728 259.0875 100.9782 15.27598792 97595
Epoch: Sep 20, 2026 • Age: 16 hours

当前状态

高度 482.2 km
远地点 / 近地点 N/A
速度 7.63 km/s
星下点 10.40°N, 66.72°E
发射日期 Dec 23, 2024
运行时间 1.7 years
类型 internet

技术详情

分类 Payload
质量 730.00 kg
干质量 700.00 kg
长度 0.30 m
跨度 29.00 m
形状 ? Box + pan
制造商 SPXS
平台类型 Starlink V2M
阶段状态 In Orbit
所有者/国家 SPXS/US

Most Searched